This is the latest recevied weather packets stored in our database for station/object HB9TJR-3. If no packets are shown the sender has not sent any weather packets the latest 10 day(s).
| Time | Temp. | Humidity | Pressure | Rain* | Wind** | Luminosity | Snow |
|---|---|---|---|---|---|---|---|
| 1777961254 | 7.22° C | 92% | 860.2 hPa | 0 mm | - | - | - |
| 1777960294 | 7.22° C | 91% | 860.5 hPa | 0 mm | - | - | - |
| 1777959334 | 7.22° C | 93% | 860.4 hPa | 0 mm | - | - | - |
| 1777958374 | 7.22° C | 95% | 860.6 hPa | 0 mm | - | - | - |
| 1777957414 | 7.22° C | 95% | 860.6 hPa | 0 mm | - | - | - |
| 1777956455 | 7.22° C | 95% | 860.6 hPa | 0 mm | - | - | - |
| 1777955495 | 7.22° C | 95% | 860.6 hPa | 0 mm | - | - | - |
| 1777954534 | 7.78° C | 91% | 860.7 hPa | 0 mm | - | - | - |
| 1777953574 | 8.33° C | 90% | 860.6 hPa | 0 mm | - | - | - |
| 1777952614 | 8.33° C | 90% | 860.7 hPa | 0 mm | - | - | - |
| 1777951654 | 8.89° C | 89% | 860.9 hPa | 0 mm | - | - | - |
| 1777950695 | 8.89° C | 87% | 860.9 hPa | 0 mm | - | - | - |
| 1777949734 | 8.89° C | 87% | 860.9 hPa | 0 mm | - | - | - |
| 1777948774 | 8.89° C | 87% | 861 hPa | 0 mm | - | - | - |
| 1777947814 | 8.33° C | 88% | 861.2 hPa | 0 mm | - | - | - |
| 1777946854 | 8.89° C | 87% | 861.4 hPa | 0 mm | - | - | - |
| 1777945894 | 9.44° C | 86% | 861.5 hPa | 0 mm | - | - | - |
| 1777944935 | 9.44° C | 86% | 861.6 hPa | 0 mm | - | - | - |
| 1777943974 | 9.44° C | 86% | 861.6 hPa | 0 mm | - | - | - |
| 1777943014 | 8.89° C | 85% | 861.6 hPa | 0 mm | - | - | - |
| 1777942054 | 9.44° C | 84% | 861.6 hPa | 0 mm | - | - | - |
| 1777941094 | 8.89° C | 84% | 861.6 hPa | 0 mm | - | - | - |
| 1777940135 | 9.44° C | 84% | 861.9 hPa | 0 mm | - | - | - |
| 1777939174 | 9.44° C | 84% | 862 hPa | 0 mm | - | - | - |
| 1777937254 | 8.89° C | 84% | 862.1 hPa | 0 mm | - | - | - |
* Rain latest hour (hover to see other rain measurements)
** Current wind speed in m/s (hover to see current wind gust speed)